owner,sensor,date,latitude,longitude,air_temperature,qcFlag 
TCOON,ioos:station:TCOON:518:1,2017-02-01T00:12:00Z,29.5150,-94.5133,26.4,1111122 
TCOON,ioos:station:TCOON:518:1,2017-02-01T01:12:00Z,29.5150,-94.5133,26.1,1111122 
TCOON,ioos:station:TCOON:518:1,2017-02-01T02:12:00Z,29.5150,-94.5133,25.9,1111122 
TCOON,ioos:station:TCOON:518:1,2017-02-01T03:12:00Z,29.5150,-94.5133,26.1,1111122 
TCOON,ioos:station:TCOON:518:1,2017-02-01T04:12:00Z,29.5150,-94.5133,26.1,1111122 
TCOON,ioos:station:TCOON:518:1,2017-02-01T05:12:00Z,29.5150,-94.5133,26.2,1111122 
TCOON,ioos:station:TCOON:518:1,2017-02-01T06:18:00Z,29.5150,-94.5133,26.2,1111122 
TCOON,ioos:station:TCOON:518:1,2017-02-01T07:12:00Z,29.5150,-94.5133,26.0,1111122 
TCOON,ioos:station:TCOON:518:1,2017-02-01T08:12:00Z,29.5150,-94.5133,26.0,1111122 
TCOON,ioos:station:TCOON:518:1,2017-02-01T09:12:00Z,29.5150,-94.5133,25.8,1111122 
TCOON,ioos:station:TCOON:518:1,2017-02-01T10:12:00Z,29.5150,-94.5133,25.8,1111122 
TCOON,ioos:station:TCOON:518:1,2017-02-01T11:12:00Z,29.5150,-94.5133,25.9,1111122 
TCOON,ioos:station:TCOON:518:1,2017-02-01T12:12:00Z,29.5150,-94.5133,25.9,1111122 
TCOON,ioos:station:TCOON:518:1,2017-02-01T13:12:00Z,29.5150,-94.5133,26.0,1111122 
TCOON,ioos:station:TCOON:518:1,2017-02-01T14:12:00Z,29.5150,-94.5133,27.7,1111122 
TCOON,ioos:station:TCOON:518:1,2017-02-01T15:12:00Z,29.5150,-94.5133,28.4,1111122 
TCOON,ioos:station:TCOON:518:1,2017-02-01T16:12:00Z,29.5150,-94.5133,29.2,1111122 
TCOON,ioos:station:TCOON:518:1,2017-02-01T17:12:00Z,29.5150,-94.5133,29.3,1111122 
TCOON,ioos:station:TCOON:518:1,2017-02-01T18:12:00Z,29.5150,-94.5133,28.9,1111122 
TCOON,ioos:station:TCOON:518:1,2017-02-01T19:12:00Z,29.5150,-94.5133,29.3,1111122 
TCOON,ioos:station:TCOON:518:1,2017-02-01T20:12:00Z,29.5150,-94.5133,29.4,1111122 
TCOON,ioos:station:TCOON:518:1,2017-02-01T21:12:00Z,29.5150,-94.5133,29.3,1111122 
TCOON,ioos:station:TCOON:518:1,2017-02-01T22:12:00Z,29.5150,-94.5133,29.2,1111122 
TCOON,ioos:station:TCOON:518:1,2017-02-01T23:12:00Z,29.5150,-94.5133,28.0,1111122 
TCOON,ioos:station:TCOON:518:1,2017-02-02T00:12:00Z,29.5150,-94.5133,27.4,1111122 
TCOON,ioos:station:TCOON:518:1,2017-02-02T01:12:00Z,29.5150,-94.5133,27.3,1111122 
TCOON,ioos:station:TCOON:518:1,2017-02-02T02:12:00Z,29.5150,-94.5133,27.1,1111122 
TCOON,ioos:station:TCOON:518:1,2017-02-02T03:12:00Z,29.5150,-94.5133,27.5,1111122 
TCOON,ioos:station:TCOON:518:1,2017-02-02T04:12:00Z,29.5150,-94.5133,27.2,1111122 
TCOON,ioos:station:TCOON:518:1,2017-02-02T05:12:00Z,29.5150,-94.5133,27.0,1111122 
TCOON,ioos:station:TCOON:518:1,2017-02-02T06:18:00Z,29.5150,-94.5133,27.1,1111122 
TCOON,ioos:station:TCOON:518:1,2017-02-02T07:12:00Z,29.5150,-94.5133,27.0,1111122 
TCOON,ioos:station:TCOON:518:1,2017-02-02T08:12:00Z,29.5150,-94.5133,26.8,1111122 
TCOON,ioos:station:TCOON:518:1,2017-02-02T09:12:00Z,29.5150,-94.5133,26.7,1111122 
TCOON,ioos:station:TCOON:518:1,2017-02-02T10:12:00Z,29.5150,-94.5133,26.3,1111122 
TCOON,ioos:station:TCOON:518:1,2017-02-02T11:12:00Z,29.5150,-94.5133,26.3,1111122 
TCOON,ioos:station:TCOON:518:1,2017-02-02T12:12:00Z,29.5150,-94.5133,26.6,1111122 
TCOON,ioos:station:TCOON:518:1,2017-02-02T13:12:00Z,29.5150,-94.5133,26.5,1111122 
TCOON,ioos:station:TCOON:518:1,2017-02-02T14:12:00Z,29.5150,-94.5133,26.9,1111122 
TCOON,ioos:station:TCOON:518:1,2017-02-02T15:12:00Z,29.5150,-94.5133,28.5,1111122 
TCOON,ioos:station:TCOON:518:1,2017-02-02T16:12:00Z,29.5150,-94.5133,29.4,1111122 
TCOON,ioos:station:TCOON:518:1,2017-02-02T17:12:00Z,29.5150,-94.5133,30.6,1111122 
TCOON,ioos:station:TCOON:518:1,2017-02-02T18:12:00Z,29.5150,-94.5133,30.7,1111122 
TCOON,ioos:station:TCOON:518:1,2017-02-02T19:12:00Z,29.5150,-94.5133,31.3,1111122 
TCOON,ioos:station:TCOON:518:1,2017-02-02T20:12:00Z,29.5150,-94.5133,30.9,1111122 
TCOON,ioos:station:TCOON:518:1,2017-02-02T21:12:00Z,29.5150,-94.5133,30.8,1111122 
TCOON,ioos:station:TCOON:518:1,2017-02-02T22:12:00Z,29.5150,-94.5133,31.2,1111122 
TCOON,ioos:station:TCOON:518:1,2017-02-02T23:12:00Z,29.5150,-94.5133,29.9,1111122 
TCOON,ioos:station:TCOON:518:1,2017-02-03T00:12:00Z,29.5150,-94.5133,28.7,1111122 
TCOON,ioos:station:TCOON:518:1,2017-02-03T01:12:00Z,29.5150,-94.5133,28.4,1111122 
TCOON,ioos:station:TCOON:518:1,2017-02-03T02:12:00Z,29.5150,-94.5133,26.2,1111122 
TCOON,ioos:station:TCOON:518:1,2017-02-03T03:12:00Z,29.5150,-94.5133,25.2,1111122 
TCOON,ioos:station:TCOON:518:1,2017-02-03T04:12:00Z,29.5150,-94.5133,24.7,1111122 
TCOON,ioos:station:TCOON:518:1,2017-02-03T05:12:00Z,29.5150,-94.5133,23.2,1111122 
TCOON,ioos:station:TCOON:518:1,2017-02-03T06:12:00Z,29.5150,-94.5133,22.2,1111122 
TCOON,ioos:station:TCOON:518:1,2017-02-03T07:12:00Z,29.5150,-94.5133,21.3,1111122 
TCOON,ioos:station:TCOON:518:1,2017-02-03T08:12:00Z,29.5150,-94.5133,21.0,1111122 
TCOON,ioos:station:TCOON:518:1,2017-02-03T09:12:00Z,29.5150,-94.5133,19.9,1111122 
TCOON,ioos:station:TCOON:518:1,2017-02-03T10:12:00Z,29.5150,-94.5133,19.6,1111122 
TCOON,ioos:station:TCOON:518:1,2017-02-03T11:12:00Z,29.5150,-94.5133,19.0,1111122 
TCOON,ioos:station:TCOON:518:1,2017-02-03T12:12:00Z,29.5150,-94.5133,18.8,1111122 
TCOON,ioos:station:TCOON:518:1,2017-02-03T13:12:00Z,29.5150,-94.5133,18.9,1111122 
TCOON,ioos:station:TCOON:518:1,2017-02-03T14:12:00Z,29.5150,-94.5133,18.7,1111122 
TCOON,ioos:station:TCOON:518:1,2017-02-03T15:12:00Z,29.5150,-94.5133,18.6,1111122 
TCOON,ioos:station:TCOON:518:1,2017-02-03T16:12:00Z,29.5150,-94.5133,19.4,1111122 
TCOON,ioos:station:TCOON:518:1,2017-02-03T17:12:00Z,29.5150,-94.5133,20.4,1111122 
TCOON,ioos:station:TCOON:518:1,2017-02-03T18:12:00Z,29.5150,-94.5133,21.6,1111122 
TCOON,ioos:station:TCOON:518:1,2017-02-03T19:12:00Z,29.5150,-94.5133,22.0,1111122 
TCOON,ioos:station:TCOON:518:1,2017-02-03T20:12:00Z,29.5150,-94.5133,22.6,1111122 
TCOON,ioos:station:TCOON:518:1,2017-02-03T21:12:00Z,29.5150,-94.5133,23.7,1111122 
TCOON,ioos:station:TCOON:518:1,2017-02-03T22:12:00Z,29.5150,-94.5133,24.6,1111122 
TCOON,ioos:station:TCOON:518:1,2017-02-03T23:24:00Z,29.5150,-94.5133,24.0,1111122 
TCOON,ioos:station:TCOON:518:1,2017-02-04T00:12:00Z,29.5150,-94.5133,23.7,1111122 
TCOON,ioos:station:TCOON:518:1,2017-02-04T01:12:00Z,29.5150,-94.5133,22.7,1111122 
TCOON,ioos:station:TCOON:518:1,2017-02-04T02:12:00Z,29.5150,-94.5133,20.8,1111122 
TCOON,ioos:station:TCOON:518:1,2017-02-04T03:12:00Z,29.5150,-94.5133,20.4,1111122 
TCOON,ioos:station:TCOON:518:1,2017-02-04T04:12:00Z,29.5150,-94.5133,20.1,1111122 
TCOON,ioos:station:TCOON:518:1,2017-02-04T05:12:00Z,29.5150,-94.5133,19.9,1111122 
TCOON,ioos:station:TCOON:518:1,2017-02-04T06:18:00Z,29.5150,-94.5133,19.6,1111122 
TCOON,ioos:station:TCOON:518:1,2017-02-04T07:12:00Z,29.5150,-94.5133,19.5,1111122 
TCOON,ioos:station:TCOON:518:1,2017-02-04T08:12:00Z,29.5150,-94.5133,18.9,1111122 
TCOON,ioos:station:TCOON:518:1,2017-02-04T09:12:00Z,29.5150,-94.5133,18.4,1111122 
TCOON,ioos:station:TCOON:518:1,2017-02-04T10:12:00Z,29.5150,-94.5133,17.7,1111122 
TCOON,ioos:station:TCOON:518:1,2017-02-04T11:12:00Z,29.5150,-94.5133,17.2,1111122 
TCOON,ioos:station:TCOON:518:1,2017-02-04T12:12:00Z,29.5150,-94.5133,17.6,1111122 
TCOON,ioos:station:TCOON:518:1,2017-02-04T13:12:00Z,29.5150,-94.5133,16.8,1111122 
TCOON,ioos:station:TCOON:518:1,2017-02-04T14:12:00Z,29.5150,-94.5133,17.3,1111122 
TCOON,ioos:station:TCOON:518:1,2017-02-04T15:12:00Z,29.5150,-94.5133,19.1,1111122 
TCOON,ioos:station:TCOON:518:1,2017-02-04T16:12:00Z,29.5150,-94.5133,19.7,1111122 
TCOON,ioos:station:TCOON:518:1,2017-02-04T17:12:00Z,29.5150,-94.5133,21.6,1111122 
TCOON,ioos:station:TCOON:518:1,2017-02-04T18:12:00Z,29.5150,-94.5133,22.0,1111122 
TCOON,ioos:station:TCOON:518:1,2017-02-04T19:12:00Z,29.5150,-94.5133,22.1,1111122 
TCOON,ioos:station:TCOON:518:1,2017-02-04T20:12:00Z,29.5150,-94.5133,22.4,1111122 
TCOON,ioos:station:TCOON:518:1,2017-02-04T21:12:00Z,29.5150,-94.5133,22.9,1111122 
TCOON,ioos:station:TCOON:518:1,2017-02-04T22:12:00Z,29.5150,-94.5133,23.5,1111122 
TCOON,ioos:station:TCOON:518:1,2017-02-04T23:12:00Z,29.5150,-94.5133,24.0,1111122 
TCOON,ioos:station:TCOON:518:1,2017-02-05T00:12:00Z,29.5150,-94.5133,24.5,1111122 
TCOON,ioos:station:TCOON:518:1,2017-02-05T01:12:00Z,29.5150,-94.5133,25.0,1111122 
TCOON,ioos:station:TCOON:518:1,2017-02-05T02:12:00Z,29.5150,-94.5133,25.2,1111122 
TCOON,ioos:station:TCOON:518:1,2017-02-05T03:12:00Z,29.5150,-94.5133,25.3,1111122 
TCOON,ioos:station:TCOON:518:1,2017-02-05T04:12:00Z,29.5150,-94.5133,25.5,1111122 
TCOON,ioos:station:TCOON:518:1,2017-02-05T05:12:00Z,29.5150,-94.5133,25.6,1111122 
TCOON,ioos:station:TCOON:518:1,2017-02-05T06:18:00Z,29.5150,-94.5133,25.7,1111122 
TCOON,ioos:station:TCOON:518:1,2017-02-05T07:12:00Z,29.5150,-94.5133,25.6,1111122 
TCOON,ioos:station:TCOON:518:1,2017-02-05T08:12:00Z,29.5150,-94.5133,25.5,1111122 
TCOON,ioos:station:TCOON:518:1,2017-02-05T09:12:00Z,29.5150,-94.5133,25.5,1111122 
TCOON,ioos:station:TCOON:518:1,2017-02-05T10:12:00Z,29.5150,-94.5133,25.2,1111122 
TCOON,ioos:station:TCOON:518:1,2017-02-05T11:12:00Z,29.5150,-94.5133,25.4,1111122 
TCOON,ioos:station:TCOON:518:1,2017-02-05T12:12:00Z,29.5150,-94.5133,25.4,1111122 
TCOON,ioos:station:TCOON:518:1,2017-02-05T13:12:00Z,29.5150,-94.5133,25.7,1111122 
TCOON,ioos:station:TCOON:518:1,2017-02-05T14:12:00Z,29.5150,-94.5133,25.8,1111122 
TCOON,ioos:station:TCOON:518:1,2017-02-05T15:12:00Z,29.5150,-94.5133,26.2,1111122 
TCOON,ioos:station:TCOON:518:1,2017-02-05T16:12:00Z,29.5150,-94.5133,26.8,1111122 
TCOON,ioos:station:TCOON:518:1,2017-02-05T17:12:00Z,29.5150,-94.5133,27.3,1111122 
TCOON,ioos:station:TCOON:518:1,2017-02-05T18:12:00Z,29.5150,-94.5133,28.1,1111122 
TCOON,ioos:station:TCOON:518:1,2017-02-05T19:12:00Z,29.5150,-94.5133,28.0,1111122 
TCOON,ioos:station:TCOON:518:1,2017-02-05T20:12:00Z,29.5150,-94.5133,28.2,1111122 
TCOON,ioos:station:TCOON:518:1,2017-02-05T21:12:00Z,29.5150,-94.5133,28.2,1111122 
TCOON,ioos:station:TCOON:518:1,2017-02-05T22:12:00Z,29.5150,-94.5133,27.6,1111122 
TCOON,ioos:station:TCOON:518:1,2017-02-05T23:12:00Z,29.5150,-94.5133,27.7,1111122 
TCOON,ioos:station:TCOON:518:1,2017-02-06T00:12:00Z,29.5150,-94.5133,26.7,1111122 
TCOON,ioos:station:TCOON:518:1,2017-02-06T01:12:00Z,29.5150,-94.5133,26.5,1111122 
TCOON,ioos:station:TCOON:518:1,2017-02-06T02:12:00Z,29.5150,-94.5133,26.6,1111122 
TCOON,ioos:station:TCOON:518:1,2017-02-06T03:12:00Z,29.5150,-94.5133,26.3,1111122 
TCOON,ioos:station:TCOON:518:1,2017-02-06T04:12:00Z,29.5150,-94.5133,26.6,1111122 
TCOON,ioos:station:TCOON:518:1,2017-02-06T05:12:00Z,29.5150,-94.5133,26.4,1111122 
TCOON,ioos:station:TCOON:518:1,2017-02-06T06:12:00Z,29.5150,-94.5133,26.2,1111122 
TCOON,ioos:station:TCOON:518:1,2017-02-06T07:12:00Z,29.5150,-94.5133,26.3,1111122 
TCOON,ioos:station:TCOON:518:1,2017-02-06T08:12:00Z,29.5150,-94.5133,26.3,1111122 
TCOON,ioos:station:TCOON:518:1,2017-02-06T09:12:00Z,29.5150,-94.5133,26.3,1111122 
TCOON,ioos:station:TCOON:518:1,2017-02-06T10:12:00Z,29.5150,-94.5133,26.4,1111122 
TCOON,ioos:station:TCOON:518:1,2017-02-06T11:12:00Z,29.5150,-94.5133,26.5,1111122 
TCOON,ioos:station:TCOON:518:1,2017-02-06T12:12:00Z,29.5150,-94.5133,26.1,1111122 
TCOON,ioos:station:TCOON:518:1,2017-02-06T13:12:00Z,29.5150,-94.5133,26.4,1111122 
TCOON,ioos:station:TCOON:518:1,2017-02-06T14:12:00Z,29.5150,-94.5133,26.2,1111122 
TCOON,ioos:station:TCOON:518:1,2017-02-06T15:12:00Z,29.5150,-94.5133,26.7,1111122 
TCOON,ioos:station:TCOON:518:1,2017-02-06T16:12:00Z,29.5150,-94.5133,27.1,1111122 
TCOON,ioos:station:TCOON:518:1,2017-02-06T17:12:00Z,29.5150,-94.5133,28.3,1111122 
TCOON,ioos:station:TCOON:518:1,2017-02-06T18:12:00Z,29.5150,-94.5133,29.0,1111122 
TCOON,ioos:station:TCOON:518:1,2017-02-06T19:12:00Z,29.5150,-94.5133,28.9,1111122 
TCOON,ioos:station:TCOON:518:1,2017-02-06T20:12:00Z,29.5150,-94.5133,28.5,1111122 
TCOON,ioos:station:TCOON:518:1,2017-02-06T21:12:00Z,29.5150,-94.5133,29.0,1111122 
TCOON,ioos:station:TCOON:518:1,2017-02-06T22:12:00Z,29.5150,-94.5133,28.2,1111122 
TCOON,ioos:station:TCOON:518:1,2017-02-07T00:06:00Z,29.5150,-94.5133,27.2,1111122 
TCOON,ioos:station:TCOON:518:1,2017-02-07T02:06:00Z,29.5150,-94.5133,26.9,1111122 
TCOON,ioos:station:TCOON:518:1,2017-02-07T03:12:00Z,29.5150,-94.5133,27.0,1111122 
TCOON,ioos:station:TCOON:518:1,2017-02-07T04:12:00Z,29.5150,-94.5133,27.1,1111122 
TCOON,ioos:station:TCOON:518:1,2017-02-07T05:12:00Z,29.5150,-94.5133,26.8,1111122 
TCOON,ioos:station:TCOON:518:1,2017-02-07T06:18:00Z,29.5150,-94.5133,27.0,1111122 
TCOON,ioos:station:TCOON:518:1,2017-02-07T07:12:00Z,29.5150,-94.5133,27.1,1111122 
TCOON,ioos:station:TCOON:518:1,2017-02-07T08:12:00Z,29.5150,-94.5133,27.2,1111122 
TCOON,ioos:station:TCOON:518:1,2017-02-07T09:12:00Z,29.5150,-94.5133,27.4,1111122 
TCOON,ioos:station:TCOON:518:1,2017-02-07T10:12:00Z,29.5150,-94.5133,27.2,1111122 
TCOON,ioos:station:TCOON:518:1,2017-02-07T11:12:00Z,29.5150,-94.5133,27.1,1111122 
TCOON,ioos:station:TCOON:518:1,2017-02-07T12:12:00Z,29.5150,-94.5133,27.1,1111122 
TCOON,ioos:station:TCOON:518:1,2017-02-07T13:12:00Z,29.5150,-94.5133,27.1,1111122 
TCOON,ioos:station:TCOON:518:1,2017-02-07T14:12:00Z,29.5150,-94.5133,27.5,1111122 
TCOON,ioos:station:TCOON:518:1,2017-02-07T15:12:00Z,29.5150,-94.5133,27.9,1111122 
TCOON,ioos:station:TCOON:518:1,2017-02-07T16:12:00Z,29.5150,-94.5133,28.7,1111122 
TCOON,ioos:station:TCOON:518:1,2017-02-07T17:12:00Z,29.5150,-94.5133,29.9,1111122 
TCOON,ioos:station:TCOON:518:1,2017-02-07T18:12:00Z,29.5150,-94.5133,30.3,1111122 
TCOON,ioos:station:TCOON:518:1,2017-02-07T19:12:00Z,29.5150,-94.5133,30.4,1111122 
TCOON,ioos:station:TCOON:518:1,2017-02-07T20:12:00Z,29.5150,-94.5133,30.8,1111122 
TCOON,ioos:station:TCOON:518:1,2017-02-07T21:12:00Z,29.5150,-94.5133,30.4,1111122 
TCOON,ioos:station:TCOON:518:1,2017-02-07T22:18:00Z,29.5150,-94.5133,30.0,1111122 
TCOON,ioos:station:TCOON:518:1,2017-02-07T23:18:00Z,29.5150,-94.5133,28.8,1111122 
TCOON,ioos:station:TCOON:518:1,2017-02-08T00:18:00Z,29.5150,-94.5133,27.8,1111122 
TCOON,ioos:station:TCOON:518:1,2017-02-08T01:18:00Z,29.5150,-94.5133,27.2,1111122 
TCOON,ioos:station:TCOON:518:1,2017-02-08T02:18:00Z,29.5150,-94.5133,27.6,1111122 
TCOON,ioos:station:TCOON:518:1,2017-02-08T03:18:00Z,29.5150,-94.5133,27.8,1111122 
TCOON,ioos:station:TCOON:518:1,2017-02-08T04:24:00Z,29.5150,-94.5133,27.5,1111122 
TCOON,ioos:station:TCOON:518:1,2017-02-08T05:18:00Z,29.5150,-94.5133,27.4,1111122 
TCOON,ioos:station:TCOON:518:1,2017-02-08T06:18:00Z,29.5150,-94.5133,27.3,1111122 
TCOON,ioos:station:TCOON:518:1,2017-02-08T07:24:00Z,29.5150,-94.5133,27.9,1111122 
TCOON,ioos:station:TCOON:518:1,2017-02-08T08:18:00Z,29.5150,-94.5133,27.9,1111122 
TCOON,ioos:station:TCOON:518:1,2017-02-08T09:18:00Z,29.5150,-94.5133,27.6,1111122 
TCOON,ioos:station:TCOON:518:1,2017-02-08T10:18:00Z,29.5150,-94.5133,27.5,1111122 
TCOON,ioos:station:TCOON:518:1,2017-02-08T11:18:00Z,29.5150,-94.5133,28.0,1111122 
TCOON,ioos:station:TCOON:518:1,2017-02-08T12:18:00Z,29.5150,-94.5133,27.9,1111122 
TCOON,ioos:station:TCOON:518:1,2017-02-08T13:18:00Z,29.5150,-94.5133,27.9,1111122 
TCOON,ioos:station:TCOON:518:1,2017-02-08T14:18:00Z,29.5150,-94.5133,28.5,1111122 
TCOON,ioos:station:TCOON:518:1,2017-02-08T15:18:00Z,29.5150,-94.5133,29.6,1111122 
TCOON,ioos:station:TCOON:518:1,2017-02-08T16:18:00Z,29.5150,-94.5133,29.5,1111122 
TCOON,ioos:station:TCOON:518:1,2017-02-08T17:18:00Z,29.5150,-94.5133,30.1,1111122 
TCOON,ioos:station:TCOON:518:1,2017-02-08T18:12:00Z,29.5150,-94.5133,30.2,1111122 
TCOON,ioos:station:TCOON:518:1,2017-02-08T19:12:00Z,29.5150,-94.5133,31.0,1111122 
TCOON,ioos:station:TCOON:518:1,2017-02-08T20:12:00Z,29.5150,-94.5133,31.1,1111122 
TCOON,ioos:station:TCOON:518:1,2017-02-08T21:12:00Z,29.5150,-94.5133,29.7,1111122 
TCOON,ioos:station:TCOON:518:1,2017-02-08T22:12:00Z,29.5150,-94.5133,29.4,1111122 
TCOON,ioos:station:TCOON:518:1,2017-02-08T23:12:00Z,29.5150,-94.5133,28.9,1111122 
TCOON,ioos:station:TCOON:518:1,2017-02-09T00:12:00Z,29.5150,-94.5133,27.4,1111122 
TCOON,ioos:station:TCOON:518:1,2017-02-09T01:12:00Z,29.5150,-94.5133,27.6,1111122 
TCOON,ioos:station:TCOON:518:1,2017-02-09T02:12:00Z,29.5150,-94.5133,27.7,1111122 
TCOON,ioos:station:TCOON:518:1,2017-02-09T03:12:00Z,29.5150,-94.5133,28.8,1111122 
TCOON,ioos:station:TCOON:518:1,2017-02-09T04:18:00Z,29.5150,-94.5133,29.4,1111122 
TCOON,ioos:station:TCOON:518:1,2017-02-09T05:12:00Z,29.5150,-94.5133,27.8,1111122 
TCOON,ioos:station:TCOON:518:1,2017-02-09T06:12:00Z,29.5150,-94.5133,26.6,1111122 
TCOON,ioos:station:TCOON:518:1,2017-02-09T07:12:00Z,29.5150,-94.5133,24.9,1111122 
TCOON,ioos:station:TCOON:518:1,2017-02-09T08:12:00Z,29.5150,-94.5133,24.3,1111122 
TCOON,ioos:station:TCOON:518:1,2017-02-09T09:12:00Z,29.5150,-94.5133,23.1,1111122 
TCOON,ioos:station:TCOON:518:1,2017-02-09T10:12:00Z,29.5150,-94.5133,22.0,1111122 
TCOON,ioos:station:TCOON:518:1,2017-02-09T11:12:00Z,29.5150,-94.5133,21.6,1111122 
TCOON,ioos:station:TCOON:518:1,2017-02-09T12:12:00Z,29.5150,-94.5133,21.2,1111122 
TCOON,ioos:station:TCOON:518:1,2017-02-09T13:12:00Z,29.5150,-94.5133,21.8,1111122 
TCOON,ioos:station:TCOON:518:1,2017-02-09T14:12:00Z,29.5150,-94.5133,22.2,1111122 
TCOON,ioos:station:TCOON:518:1,2017-02-09T19:24:00Z,29.5150,-94.5133,26.0,1111122 
TCOON,ioos:station:TCOON:518:1,2017-02-09T20:18:00Z,29.5150,-94.5133,27.9,1111122 
TCOON,ioos:station:TCOON:518:1,2017-02-09T21:24:00Z,29.5150,-94.5133,26.4,1111122 
TCOON,ioos:station:TCOON:518:1,2017-02-09T22:24:00Z,29.5150,-94.5133,26.5,1111122 
TCOON,ioos:station:TCOON:518:1,2017-02-10T01:12:00Z,29.5150,-94.5133,26.0,1111122 
TCOON,ioos:station:TCOON:518:1,2017-02-10T02:12:00Z,29.5150,-94.5133,25.9,1111122 
TCOON,ioos:station:TCOON:518:1,2017-02-10T03:24:00Z,29.5150,-94.5133,25.8,1111122 
TCOON,ioos:station:TCOON:518:1,2017-02-10T04:18:00Z,29.5150,-94.5133,25.5,1111122 
TCOON,ioos:station:TCOON:518:1,2017-02-10T05:24:00Z,29.5150,-94.5133,25.2,1111122 
TCOON,ioos:station:TCOON:518:1,2017-02-10T06:30:00Z,29.5150,-94.5133,24.9,1111122 
TCOON,ioos:station:TCOON:518:1,2017-02-10T07:36:00Z,29.5150,-94.5133,24.8,1111122 
TCOON,ioos:station:TCOON:518:1,2017-02-10T08:30:00Z,29.5150,-94.5133,24.7,1111122 
TCOON,ioos:station:TCOON:518:1,2017-02-10T09:24:00Z,29.5150,-94.5133,24.8,1111122 
TCOON,ioos:station:TCOON:518:1,2017-02-10T10:12:00Z,29.5150,-94.5133,25.0,1111122 
TCOON,ioos:station:TCOON:518:1,2017-02-10T11:12:00Z,29.5150,-94.5133,25.2,1111122 
TCOON,ioos:station:TCOON:518:1,2017-02-10T12:12:00Z,29.5150,-94.5133,25.6,1111122 
TCOON,ioos:station:TCOON:518:1,2017-02-10T13:12:00Z,29.5150,-94.5133,26.1,1111122 
TCOON,ioos:station:TCOON:518:1,2017-02-10T14:12:00Z,29.5150,-94.5133,26.3,1111122 
TCOON,ioos:station:TCOON:518:1,2017-02-10T15:12:00Z,29.5150,-94.5133,26.4,1111122 
TCOON,ioos:station:TCOON:518:1,2017-02-10T16:12:00Z,29.5150,-94.5133,27.0,1111122 
TCOON,ioos:station:TCOON:518:1,2017-02-10T17:12:00Z,29.5150,-94.5133,27.2,1111122 
TCOON,ioos:station:TCOON:518:1,2017-02-10T18:12:00Z,29.5150,-94.5133,27.7,1111122 
TCOON,ioos:station:TCOON:518:1,2017-02-10T19:12:00Z,29.5150,-94.5133,27.8,1111122 
TCOON,ioos:station:TCOON:518:1,2017-02-10T20:12:00Z,29.5150,-94.5133,28.1,1111122 
TCOON,ioos:station:TCOON:518:1,2017-02-10T21:12:00Z,29.5150,-94.5133,27.9,1111122 
TCOON,ioos:station:TCOON:518:1,2017-02-10T22:12:00Z,29.5150,-94.5133,27.6,1111122 
TCOON,ioos:station:TCOON:518:1,2017-02-10T23:12:00Z,29.5150,-94.5133,27.5,1111122 
TCOON,ioos:station:TCOON:518:1,2017-02-11T00:12:00Z,29.5150,-94.5133,27.7,1111122 
TCOON,ioos:station:TCOON:518:1,2017-02-11T01:12:00Z,29.5150,-94.5133,27.6,1111122 
TCOON,ioos:station:TCOON:518:1,2017-02-11T02:12:00Z,29.5150,-94.5133,27.5,1111122 
TCOON,ioos:station:TCOON:518:1,2017-02-11T03:12:00Z,29.5150,-94.5133,27.6,1111122 
TCOON,ioos:station:TCOON:518:1,2017-02-11T04:12:00Z,29.5150,-94.5133,27.8,1111122 
TCOON,ioos:station:TCOON:518:1,2017-02-11T05:12:00Z,29.5150,-94.5133,27.7,1111122 
TCOON,ioos:station:TCOON:518:1,2017-02-11T06:18:00Z,29.5150,-94.5133,27.6,1111122 
TCOON,ioos:station:TCOON:518:1,2017-02-11T07:12:00Z,29.5150,-94.5133,27.9,1111122 
TCOON,ioos:station:TCOON:518:1,2017-02-11T08:12:00Z,29.5150,-94.5133,27.7,1111122 
TCOON,ioos:station:TCOON:518:1,2017-02-11T09:12:00Z,29.5150,-94.5133,27.6,1111122 
TCOON,ioos:station:TCOON:518:1,2017-02-11T10:12:00Z,29.5150,-94.5133,27.7,1111122 
TCOON,ioos:station:TCOON:518:1,2017-02-11T11:18:00Z,29.5150,-94.5133,27.4,1111122 
TCOON,ioos:station:TCOON:518:1,2017-02-11T12:12:00Z,29.5150,-94.5133,27.7,1111122 
TCOON,ioos:station:TCOON:518:1,2017-02-11T13:12:00Z,29.5150,-94.5133,28.1,1111122 
TCOON,ioos:station:TCOON:518:1,2017-02-11T14:12:00Z,29.5150,-94.5133,28.1,1111122 
TCOON,ioos:station:TCOON:518:1,2017-02-11T15:12:00Z,29.5150,-94.5133,28.8,1111122 
TCOON,ioos:station:TCOON:518:1,2017-02-11T16:12:00Z,29.5150,-94.5133,29.3,1111122 
TCOON,ioos:station:TCOON:518:1,2017-02-11T17:12:00Z,29.5150,-94.5133,30.4,1111122 
TCOON,ioos:station:TCOON:518:1,2017-02-11T18:12:00Z,29.5150,-94.5133,30.1,1111122 
TCOON,ioos:station:TCOON:518:1,2017-02-11T19:12:00Z,29.5150,-94.5133,30.4,1111122 
TCOON,ioos:station:TCOON:518:1,2017-02-11T20:12:00Z,29.5150,-94.5133,30.4,1111122 
TCOON,ioos:station:TCOON:518:1,2017-02-11T21:12:00Z,29.5150,-94.5133,30.1,1111122 
TCOON,ioos:station:TCOON:518:1,2017-02-11T22:12:00Z,29.5150,-94.5133,29.2,1111122 
TCOON,ioos:station:TCOON:518:1,2017-02-11T23:12:00Z,29.5150,-94.5133,28.6,1111122 
TCOON,ioos:station:TCOON:518:1,2017-02-12T00:12:00Z,29.5150,-94.5133,28.1,1111122 
TCOON,ioos:station:TCOON:518:1,2017-02-12T01:12:00Z,29.5150,-94.5133,27.9,1111122 
TCOON,ioos:station:TCOON:518:1,2017-02-12T02:12:00Z,29.5150,-94.5133,27.9,1111122 
TCOON,ioos:station:TCOON:518:1,2017-02-12T03:12:00Z,29.5150,-94.5133,27.5,1111122 
TCOON,ioos:station:TCOON:518:1,2017-02-12T04:12:00Z,29.5150,-94.5133,27.4,1111122 
TCOON,ioos:station:TCOON:518:1,2017-02-12T05:12:00Z,29.5150,-94.5133,27.5,1111122 
TCOON,ioos:station:TCOON:518:1,2017-02-12T06:12:00Z,29.5150,-94.5133,28.2,1111122 
TCOON,ioos:station:TCOON:518:1,2017-02-12T07:12:00Z,29.5150,-94.5133,28.3,1111122 
TCOON,ioos:station:TCOON:518:1,2017-02-12T08:12:00Z,29.5150,-94.5133,27.7,1111122 
TCOON,ioos:station:TCOON:518:1,2017-02-12T09:12:00Z,29.5150,-94.5133,28.1,1111122 
TCOON,ioos:station:TCOON:518:1,2017-02-12T10:12:00Z,29.5150,-94.5133,27.9,1111122 
TCOON,ioos:station:TCOON:518:1,2017-02-12T11:12:00Z,29.5150,-94.5133,27.7,1111122 
TCOON,ioos:station:TCOON:518:1,2017-02-12T12:12:00Z,29.5150,-94.5133,27.7,1111122 
TCOON,ioos:station:TCOON:518:1,2017-02-12T13:12:00Z,29.5150,-94.5133,27.8,1111122 
TCOON,ioos:station:TCOON:518:1,2017-02-12T14:12:00Z,29.5150,-94.5133,28.3,1111122 
TCOON,ioos:station:TCOON:518:1,2017-02-12T15:12:00Z,29.5150,-94.5133,28.8,1111122 
TCOON,ioos:station:TCOON:518:1,2017-02-12T16:12:00Z,29.5150,-94.5133,29.9,1111122 
TCOON,ioos:station:TCOON:518:1,2017-02-12T17:12:00Z,29.5150,-94.5133,31.2,1111122 
TCOON,ioos:station:TCOON:518:1,2017-02-12T18:12:00Z,29.5150,-94.5133,32.1,1111122 
TCOON,ioos:station:TCOON:518:1,2017-02-12T19:12:00Z,29.5150,-94.5133,31.8,1111122 
TCOON,ioos:station:TCOON:518:1,2017-02-12T20:12:00Z,29.5150,-94.5133,31.1,1111122 
TCOON,ioos:station:TCOON:518:1,2017-02-12T21:12:00Z,29.5150,-94.5133,31.1,1111122 
TCOON,ioos:station:TCOON:518:1,2017-02-12T22:12:00Z,29.5150,-94.5133,31.8,1111122 
TCOON,ioos:station:TCOON:518:1,2017-02-12T23:12:00Z,29.5150,-94.5133,30.3,1111122 
TCOON,ioos:station:TCOON:518:1,2017-02-13T00:12:00Z,29.5150,-94.5133,28.9,1111122 
TCOON,ioos:station:TCOON:518:1,2017-02-13T01:12:00Z,29.5150,-94.5133,28.5,1111122 
TCOON,ioos:station:TCOON:518:1,2017-02-13T02:12:00Z,29.5150,-94.5133,28.3,1111122 
TCOON,ioos:station:TCOON:518:1,2017-02-13T03:12:00Z,29.5150,-94.5133,28.2,1111122 
TCOON,ioos:station:TCOON:518:1,2017-02-13T04:12:00Z,29.5150,-94.5133,28.0,1111122 
TCOON,ioos:station:TCOON:518:1,2017-02-13T05:12:00Z,29.5150,-94.5133,28.0,1111122 
TCOON,ioos:station:TCOON:518:1,2017-02-13T06:12:00Z,29.5150,-94.5133,27.9,1111122 
TCOON,ioos:station:TCOON:518:1,2017-02-13T07:18:00Z,29.5150,-94.5133,27.2,1111122 